EZY42TB EGGD-LDPL

Flight info

Callsign EZY42TB
Flight time N/A
Altitude 37000
Route YORQI L607 KONAN DCT KOK DCT RITAX DCT KRH DCT KUNOD DCT GEDSO DCT VEKEN DCT GIRDA
Aircraft A320/M-SDE3FGHIRWY/LB1

Departure

Time N/A
Airport Bristol Airport (EGGD)

Arrival

Time 2026-05-08 18:59
Airport Pula Airport (LDPL)
Time Latitude Longitude Altitude Speed Heading
2026-05-08 18:25 47.11708 11.80736 37033 ft 460 kts 134°
2026-05-08 18:25 47.09978 11.83660 37039 ft 461 kts 134°
2026-05-08 18:25 47.06528 11.91577 37046 ft 467 kts 118°
2026-05-08 18:26 47.03564 12.00607 37043 ft 466 kts 119°
2026-05-08 18:26 47.00760 12.08938 37051 ft 466 kts 119°
2026-05-08 18:27 46.98344 12.16080 37043 ft 466 kts 119°
2026-05-08 18:27 46.94893 12.26299 37068 ft 464 kts 117°
2026-05-08 18:28 46.95106 12.30591 32278 ft 534 kts 63°
2026-05-08 18:28 46.96069 12.35470 34278 ft 466 kts 86°
2026-05-08 18:28 46.95909 12.40045 36052 ft 426 kts 107°
2026-05-08 18:28 46.94995 12.44095 36688 ft 417 kts 118°
2026-05-08 18:29 46.92183 12.51518 36670 ft 427 kts 124°
2026-05-08 18:29 46.89028 12.59214 36679 ft 440 kts 124°
2026-05-08 18:30 46.85790 12.66987 36684 ft 455 kts 124°
2026-05-08 18:30 46.82484 12.75010 36666 ft 462 kts 124°
2026-05-08 18:31 46.79190 12.83064 36670 ft 462 kts 124°
2026-05-08 18:31 46.75864 12.91147 36669 ft 463 kts 124°
2026-05-08 18:32 46.72536 12.99189 36671 ft 462 kts 124°
2026-05-08 18:32 46.69229 13.07161 36672 ft 462 kts 124°
2026-05-08 18:33 46.65895 13.15178 36671 ft 462 kts 124°
2026-05-08 18:33 46.62553 13.23182 36672 ft 462 kts 125°
2026-05-08 18:34 46.59191 13.31185 36670 ft 462 kts 127°
2026-05-08 18:34 46.54976 13.38065 36665 ft 452 kts 145°
2026-05-08 18:35 46.49646 13.42707 36660 ft 444 kts 158°
2026-05-08 18:35 46.44109 13.46613 36658 ft 444 kts 158°
2026-05-08 18:36 46.38506 13.50339 36535 ft 440 kts 166°
2026-05-08 18:36 46.35618 13.51984 36357 ft 441 kts 159°
2026-05-08 18:36 46.32848 13.53938 36550 ft 444 kts 156°
2026-05-08 18:37 46.30118 13.56041 36659 ft 447 kts 156°
2026-05-08 18:37 46.27378 13.58184 36651 ft 447 kts 156°
2026-05-08 18:37 46.21855 13.62309 36652 ft 446 kts 158°
2026-05-08 18:38 46.16235 13.66235 35707 ft 454 kts 159°
2026-05-08 18:38 46.13364 13.68199 34817 ft 457 kts 159°
2026-05-08 18:38 46.10494 13.70167 34211 ft 454 kts 159°
2026-05-08 18:39 46.08605 13.71467 33717 ft 453 kts 159°
2026-05-08 18:39 46.05767 13.73426 32976 ft 451 kts 158°
2026-05-08 18:39 46.02941 13.75384 32152 ft 450 kts 158°
2026-05-08 18:39 46.00126 13.77338 31545 ft 446 kts 158°
2026-05-08 18:40 45.97309 13.79296 30962 ft 441 kts 158°
2026-05-08 18:40 45.94585 13.81186 30391 ft 436 kts 158°
2026-05-08 18:40 45.91862 13.83069 29784 ft 431 kts 158°
2026-05-08 18:40 45.89177 13.84924 29220 ft 426 kts 158°
2026-05-08 18:41 45.86521 13.86756 28673 ft 420 kts 158°
2026-05-08 18:41 45.83904 13.88559 28131 ft 415 kts 158°
2026-05-08 18:41 45.81318 13.90341 27600 ft 410 kts 158°
2026-05-08 18:41 45.78766 13.92098 27103 ft 405 kts 158°
2026-05-08 18:42 45.76235 13.93839 26601 ft 401 kts 158°
2026-05-08 18:42 45.73733 13.95554 26107 ft 396 kts 158°
2026-05-08 18:42 45.71255 13.97250 25637 ft 392 kts 158°
2026-05-08 18:42 45.68802 13.98924 25171 ft 389 kts 158°
2026-05-08 18:43 45.66369 14.00587 24712 ft 385 kts 158°
2026-05-08 18:43 45.63956 14.02237 24258 ft 382 kts 158°
2026-05-08 18:43 45.61564 14.03870 23799 ft 379 kts 158°
2026-05-08 18:43 45.59188 14.05491 23300 ft 377 kts 158°
2026-05-08 18:44 45.56831 14.07097 22835 ft 374 kts 158°
2026-05-08 18:44 45.54499 14.08681 22386 ft 370 kts 157°
2026-05-08 18:44 45.52179 14.10254 21928 ft 367 kts 157°
2026-05-08 18:44 45.49880 14.11806 21464 ft 365 kts 158°
2026-05-08 18:45 45.47502 14.12979 20994 ft 360 kts 169°
2026-05-08 18:45 45.45038 14.13457 20536 ft 356 kts 180°
2026-05-08 18:45 45.42566 14.13518 20073 ft 354 kts 180°
2026-05-08 18:45 45.40102 14.13576 19603 ft 354 kts 180°
2026-05-08 18:46 45.37647 14.13640 19132 ft 354 kts 180°
2026-05-08 18:46 45.35183 14.13708 18665 ft 353 kts 179°
2026-05-08 18:46 45.32728 14.13774 18179 ft 353 kts 179°
2026-05-08 18:46 45.30272 14.13837 17686 ft 352 kts 179°
2026-05-08 18:47 45.27830 14.13895 17228 ft 349 kts 179°
2026-05-08 18:47 45.25406 14.13953 16788 ft 347 kts 179°
2026-05-08 18:47 45.23000 14.14011 16351 ft 345 kts 179°
2026-05-08 18:47 45.20611 14.14066 16187 ft 334 kts 179°
2026-05-08 18:48 45.18352 14.14119 16068 ft 324 kts 179°
2026-05-08 18:48 45.16094 14.14180 15810 ft 318 kts 179°
2026-05-08 18:48 45.13833 14.14261 15367 ft 320 kts 179°
2026-05-08 18:48 45.11621 14.14351 15064 ft 316 kts 179°
2026-05-08 18:49 45.09423 14.14449 14729 ft 315 kts 179°
2026-05-08 18:49 45.07239 14.14546 14398 ft 314 kts 179°
2026-05-08 18:49 45.05086 14.14663 14263 ft 305 kts 174°
2026-05-08 18:49 45.03134 14.15648 14144 ft 298 kts 143°
2026-05-08 18:50 45.01865 14.17888 14023 ft 290 kts 111°
2026-05-08 18:50 45.01590 14.20630 13883 ft 283 kts 89°
2026-05-08 18:50 45.01641 14.23415 13618 ft 281 kts 88°
2026-05-08 18:50 45.01702 14.26168 13331 ft 280 kts 88°
2026-05-08 18:51 45.01763 14.28911 13039 ft 278 kts 88°
2026-05-08 18:51 45.01821 14.31634 12781 ft 276 kts 88°
2026-05-08 18:51 45.01875 14.34346 12498 ft 274 kts 88°
2026-05-08 18:51 45.01891 14.37045 12207 ft 273 kts 96°
2026-05-08 18:52 45.01236 14.39509 11923 ft 269 kts 129°
2026-05-08 18:52 44.99790 14.41061 11582 ft 266 kts 161°
2026-05-08 18:52 44.97971 14.41398 11238 ft 264 kts 181°
2026-05-08 18:52 44.96127 14.41419 10893 ft 265 kts 180°
2026-05-08 18:53 44.94286 14.41479 10584 ft 264 kts 179°
2026-05-08 18:53 44.92466 14.41324 10266 ft 262 kts 198°
2026-05-08 18:53 44.90963 14.39974 9985 ft 257 kts 231°
2026-05-08 18:53 44.90239 14.37727 9649 ft 254 kts 264°
2026-05-08 18:54 44.90187 14.35241 9288 ft 254 kts 269°
2026-05-08 18:54 44.90147 14.32740 8923 ft 254 kts 268°
2026-05-08 18:54 44.90097 14.30209 8318 ft 261 kts 268°
2026-05-08 18:54 44.90051 14.27694 7702 ft 250 kts 268°
2026-05-08 18:55 44.89964 14.22910 6425 ft 237 kts 268°
2026-05-08 18:55 44.89921 14.20623 5791 ft 233 kts 268°
2026-05-08 18:55 44.89878 14.18354 5172 ft 229 kts 267°
2026-05-08 18:56 44.89836 14.16121 4565 ft 226 kts 267°
2026-05-08 18:56 44.89793 14.13895 3955 ft 223 kts 267°
2026-05-08 18:56 44.89751 14.11729 3370 ft 219 kts 267°
2026-05-08 18:56 44.89709 14.09600 2780 ft 216 kts 267°
2026-05-08 18:57 44.89668 14.07515 2316 ft 207 kts 267°
2026-05-08 18:57 44.89642 14.06213 2119 ft 194 kts 267°
2026-05-08 18:57 44.89594 14.03824 1764 ft 169 kts 268°
2026-05-08 18:57 44.89562 14.02253 1502 ft 153 kts 267°
2026-05-08 18:58 44.89533 14.00811 1289 ft 143 kts 268°
2026-05-08 18:58 44.89504 13.99421 1086 ft 140 kts 268°
2026-05-08 18:58 44.89475 13.98040 899 ft 138 kts 268°
2026-05-08 18:58 44.89447 13.96687 714 ft 138 kts 268°
2026-05-08 18:59 44.89419 13.95327 500 ft 139 kts 269°
2026-05-08 18:59 44.89392 13.93972 270 ft 138 kts 268°
2026-05-08 18:59 44.89367 13.92745 222 ft 99 kts 268°
2026-05-08 18:59 44.89355 13.92138 222 ft 38 kts 268°
2026-05-08 19:00 44.89352 13.91964 224 ft 18 kts 276°
2026-05-08 19:00 44.89406 13.91935 225 ft 7 kts 359°
2026-05-08 19:00 44.89462 13.91932 226 ft 8 kts 358°
2026-05-08 19:00 44.89509 13.91929 225 ft 7 kts 358°
2026-05-08 19:01 44.89567 13.91960 226 ft 12 kts 66°
2026-05-08 19:01 44.89572 13.92086 226 ft 14 kts 88°
2026-05-08 19:01 44.89575 13.92219 226 ft 14 kts 88°
2026-05-08 19:01 44.89578 13.92357 226 ft 14 kts 87°
2026-05-08 19:02 44.89618 13.92457 226 ft 13 kts 10°
2026-05-08 19:02 44.89703 13.92458 227 ft 12 kts 359°
2026-05-08 19:02 44.89766 13.92457 226 ft 6 kts 358°
2026-05-08 19:02 44.89786 13.92441 227 ft 4 kts 311°
2026-05-08 19:03 44.89790 13.92406 226 ft 3 kts 281°
2026-05-08 19:03 44.89801 13.92394 226 ft 2 kts 335°
2026-05-08 19:03 44.89816 13.92403 226 ft 2 kts 38°
2026-05-08 19:03 44.89822 13.92409 226 ft 0 kts 40°